[[{"header":{"parameterUnit":"m.s-1","parameterCategory":2,"la1":30.2991,"la2":30.254,"lo1":-89.0895,"lo2":-89.0444,"dy":0.0017,"dx":0.0017,"nx":28,"ny":28,"refTime":"2023-08-28T03:00:00:Z","depth":"0","parameterNumber":2,"parameterNumberName":"U-component_of_CURRENTS"},"data":[0,0,0,0,0,0,0,0,0,0,0,0,0,0,0,0,0,0,0,0,0,0,0,0,0,0,0,0,0,0,0,0,0,0,0,0,0,0,0,0,0,0,0,0,0,0,0,0,0,0,0,0,0,0,0,0,0,0,0.3183,0.3184,0,0.3222,0.3222,0.3222,0.3214,0.3213,0.3213,0.3212,0.3234,0.3235,0.3236,0,0,0,0,0,0,0,0,0,0,0,0,0,0.3116,0.3117,0.3183,0.3184,0.3184,0.3222,0.3222,0.3222,0.3214,0.3213,0.3212,0.3212,0.3234,0.3235,0.3236,0,0,0,0,0,0,0,0,0,0,0,0,0,0.3146,0.3117,0.3183,0.3187,0.3188,0.3222,0.3222,0.3222,0.3214,0.3213,0.3212,0.3212,0.3233,0.3235,0.3236,0.326,0,0,0.3241,0.3242,0,0,0,0,0,0,0,0,0.3144,0.3148,0.3185,0.3187,0.3188,0.3215,0.3207,0.3235,0.3214,0.3201,0.3212,0.3211,0.3228,0.323,0.3235,0.3261,0.3262,0.3241,0.3242,0.3243,0.3243,0,0,0,0,0,0,0,0.3142,0.3147,0.3195,0.3186,0.3188,0.3192,0.3195,0.3212,0.3215,0.3202,0.3202,0.3211,0.3228,0.3234,0.3236,0.3262,0.3241,0.3242,0.3243,0.3244,0.3348,0.3349,0,0,0,0,0,0,0.3144,0.3145,0.3194,0.3197,0.3167,0.3194,0.3197,0.3204,0.3216,0.3218,0.3212,0.3211,0.3232,0.3234,0.3236,0.3312,0.3243,0.3244,0.3245,0.3346,0.3348,0.335,0,0,0,0,0,0,0.3142,0.3147,0.3193,0.3174,0.318,0.3196,0.3204,0.3206,0.3216,0.3224,0.3225,0.3221,0.3231,0.3234,0.3266,0.3311,0.3245,0.3246,0.3344,0.3346,0.3349,0.3434,0,0,0,0,0,0,0.314,0.3147,0.3155,0.3174,0.3181,0.3222,0.3205,0.3207,0.3224,0.3223,0.3233,0.3234,0.3231,0.3264,0.3268,0.3312,0.3247,0.3341,0.3345,0.3348,0.3429,0.3439,0.3448,0,0,0,0,0,0.3137,0.3149,0.3155,0.3161,0.3191,0.3224,0.3228,0.3234,0.3225,0.3239,0.3248,0.3233,0.3288,0.3267,0.3271,0.3317,0.334,0.3344,0.3348,0.3424,0.3437,0.3448,0,0,0,0,0,0,0.3117,0.3151,0.3157,0.3176,0.3204,0.3224,0.3237,0.3241,0.3259,0.3257,0.3255,0.3258,0.3309,0.3297,0.3273,0.3356,0.3313,0.3318,0.337,0.3382,0.3391,0.3387,0.3249,0,0,0,0,0,0.312,0.3141,0.3172,0.3188,0.3204,0.3222,0.3236,0.3245,0.3263,0.3269,0.3279,0.3294,0.3329,0.3341,0.3363,0.3403,0.3438,0.3435,0.3445,0.3453,0.3453,0.356,0.358,0.3363,0.3363,0.3363,0,0,0.3116,0.3138,0.3149,0.3187,0.3205,0.3238,0.3228,0.3257,0.3286,0.327,0.3309,0.3332,0.3349,0.3402,0.3422,0.3396,0.3538,0.3458,0.3466,0.346,0.3567,0.3588,0.3607,0.3366,0.3366,0.3365,0,0,0.3121,0.314,0.3162,0.3194,0.3234,0.3251,0.3263,0.3295,0.3311,0.3355,0.3362,0.3409,0.3441,0.3474,0.3492,0.3566,0.3591,0.3575,0.3617,0.3722,0.3742,0.3759,0.3854,0.3879,0.3574,0.3574,0.3574,0,0.3112,0.3148,0.3174,0.3209,0.3242,0.3259,0.3298,0.3321,0.336,0.3399,0.3375,0.3477,0.348,0.3572,0.3589,0.3591,0.3651,0.3573,0.3737,0.3755,0.3771,0.3864,0.3891,0.3579,0.3578,0.3578,0.3577,0,0.3138,0.3174,0.3192,0.3244,0.3284,0.3319,0.3364,0.3405,0.3427,0.3464,0.3557,0.3574,0.364,0.3651,0.3634,0.3756,0.3765,0.3746,0.371,0.3798,0.3891,0.3917,0.3585,0.3584,0.3582,0.3581,0,0,0.3094,0.3189,0.3195,0.3241,0.331,0.3347,0.3413,0.3493,0.355,0.3597,0.3689,0.3739,0.3763,0.3784,0.3791,0.3855,0.4013,0.3842,0.3845,0.3941,0.426,0.4222,0.4246,0.4035,0.404,0.4043,0.4288,0,0.3104,0.3177,0.3227,0.3306,0.3354,0.3417,0.3479,0.356,0.362,0.3711,0.3771,0.3849,0.3812,0.385,0.392,0.3995,0.4082,0.3948,0.4155,0.4161,0.4121,0.4275,0.4102,0.4301,0.4313,0.4317,0.432,0,0.3111,0.3167,0.3245,0.3362,0.3389,0.3436,0.3563,0.3625,0.3759,0.3813,0.3918,0.3964,0.4085,0.4021,0.4224,0.4149,0.4211,0.4253,0.4264,0.4211,0.4171,0.421,0.4347,0.4201,0.436,0.4357,0.4354,0,0.3081,0.3182,0.3249,0.3287,0.3413,0.3468,0.3532,0.3659,0.374,0.3886,0.3971,0.4112,0.4203,0.4309,0.4394,0.4335,0.4609,0.4547,0.4579,0.4578,0.4458,0.4438,0.4475,0.4699,0.4699,0.4698,0.4697,0,0.3086,0.3142,0.3237,0.3282,0.3372,0.3459,0.3566,0.3655,0.3796,0.3912,0.402,0.4147,0.4279,0.4438,0.4486,0.4638,0.4708,0.4628,0.4655,0.4483,0.4463,0.4347,0.4285,0.4707,0.4705,0.4703,0.4702,0,0.3079,0.3127,0.3222,0.3338,0.3368,0.3442,0.3581,0.3659,0.3792,0.3951,0.401,0.4236,0.4449,0.4574,0.4771,0.477,0.4765,0.4918,0.4701,0.4696,0.4541,0.4489,0.4434,0.4305,0.5007,0.5008,0.5008,0,0.3096,0.3137,0.3253,0.3298,0.3354,0.3452,0.3512,0.3645,0.3728,0.4003,0.4082,0.4348,0.4499,0.4797,0.4877,0.5013,0.4827,0.4897,0.4732,0.4548,0.4513,0.4314,0.4193,0.4626,0.4624,0.4622,0.462,0,0.3148,0.3179,0.3256,0.3317,0.3379,0.3449,0.3538,0.3595,0.3761,0.3896,0.41,0.4249,0.4571,0.4657,0.4846,0.4892,0.4643,0.4857,0.4734,0.4285,0.4008,0.3889,0.4446,0.4602,0.4604,0.4605,0.4606,0.4607,0.3191,0.3231,0.329,0.3337,0.3393,0.3404,0.341,0.3511,0.361,0.377,0.4008,0.4172,0.4407,0.4663,0.4667,0.4579,0.4564,0.4431,0.4414,0.4252,0.4016,0.4531,0.4661,0.4663,0.4665,0.4667,0.4668,0,0.3216,0.3233,0.3294,0.3316,0.3313,0.3351,0.3389,0.3358,0.3397,0.3628,0.3781,0.4011,0.4125,0.4259,0.4311,0.4147,0.3925,0.4026,0.369,0.3616,0.4152,0.4019,0.3932,0.3932,0.3933,0.3933,0.3933,0.3933,0.3234,0.325,0.3238,0.3196,0.3198,0.3121,0.3095,0.3081,0.3171,0.3282,0.3413,0.3609,0.3865,0.4005,0.3879,0.379,0.3466,0.3333,0.3318,0.3675,0.3708,0.374,0.3598,0.3424,0.3424,0.2595,0.2589,0.2585]},{"header":{"parameterUnit":"m.s-1","parameterCategory":2,"la1":30.2991,"la2":30.254,"lo1":-89.0895,"lo2":-89.0444,"dy":0.0017,"dx":0.0017,"nx":28,"ny":28,"refTime":"2023-08-28T03:00:00:Z","depth":"0","parameterNumber":3,"parameterNumberName":"V-component_of_CURRENTS"},"data":[0,0,0,0,0,0,0,0,0,0,0,0,0,0,0,0,0,0,0,0,0,0,0,0,0,0,0,0,0,0,0,0,0,0,0,0,0,0,0,0,0,0,0,0,0,0,0,0,0,0,0,0,0,0,0,0,0,0,0.0151,0.015,0,0.0068,0.0066,0.0065,0.0003,0.0003,0.0003,0.0002,-0.0107,-0.011,-0.0112,0,0,0,0,0,0,0,0,0,0,0,0,0,0.019,0.0189,0.0151,0.015,0.0149,0.0068,0.0066,0.0065,0.0003,0.0003,0.0002,0.0002,-0.0106,-0.0109,-0.0112,0,0,0,0,0,0,0,0,0,0,0,0,0,0.0145,0.0189,0.0151,0.011,0.0105,0.0068,0.0066,0.0065,0.0004,0.0003,0.0002,0.0002,-0.0105,-0.0109,-0.0113,-0.0124,0,0,-0.0124,-0.0126,0,0,0,0,0,0,0,0,0.0148,0.0144,0.0117,0.0113,0.0107,0.0046,0.004,0.0001,0.0004,0.0041,0.0002,0.0001,-0.0057,-0.0065,-0.0081,-0.0129,-0.0133,-0.0125,-0.0127,-0.0129,-0.013,0,0,0,0,0,0,0,0.0151,0.0146,0.0117,0.0116,0.011,0.0072,0.0066,0.0032,-0.0005,0.0037,0.0033,0.0026,-0.006,-0.0077,-0.0084,-0.0135,-0.0125,-0.0128,-0.013,-0.0132,-0.0191,-0.0191,0,0,0,0,0,0,0.0168,0.015,0.0119,0.0114,0.0128,0.0072,0.0065,0.0066,-0.0004,-0.0015,0.0027,0.0024,-0.007,-0.0079,-0.0088,-0.0087,-0.0129,-0.0132,-0.0134,-0.0192,-0.0191,-0.0191,0,0,0,0,0,0,0.017,0.0167,0.0123,0.0131,0.0122,0.0073,0.0074,0.0064,0.0048,-0.0012,-0.0023,0.0021,-0.0071,-0.0083,-0.0112,-0.0093,-0.0134,-0.0137,-0.0193,-0.0192,-0.0191,-0.0097,0,0,0,0,0,0,0.0171,0.0168,0.0172,0.0132,0.0123,0.0112,0.0074,0.0063,0.0046,0.0041,-0.002,-0.0031,-0.0072,-0.0106,-0.0116,-0.0098,-0.014,-0.0194,-0.0192,-0.0191,-0.0101,-0.0093,-0.0086,0,0,0,0,0,0.0173,0.0189,0.0173,0.0169,0.0131,0.0113,0.0105,0.0065,0.0046,0.0047,0.0004,-0.003,-0.0105,-0.0109,-0.012,-0.0103,-0.0194,-0.0193,-0.0191,-0.0104,-0.0094,-0.0086,0,0,0,0,0,0,0.0207,0.0183,0.0165,0.0172,0.0148,0.0103,0.0101,0.0073,0.004,0.0035,-0.0025,-0.0038,-0.0058,-0.0093,-0.0096,-0.0117,-0.0154,-0.0154,-0.0083,-0.0075,-0.0067,-0.0036,-0.0143,0,0,0,0,0,0.0218,0.0223,0.0191,0.0196,0.0189,0.0146,0.0132,0.0108,0.0074,0.0058,0.0016,-0.0027,-0.006,-0.0077,-0.0114,-0.0125,-0.0138,-0.0121,-0.0113,-0.0106,-0.0089,-0.0093,-0.0084,-0.0186,-0.0186,-0.0186,0,0,0.0233,0.0219,0.0222,0.0203,0.0181,0.0185,0.0136,0.0127,0.0129,0.0052,0.0043,-0.0005,-0.0059,-0.0073,-0.0084,-0.0099,-0.0084,-0.0104,-0.0098,-0.0085,-0.009,-0.008,-0.0071,-0.0184,-0.0185,-0.0185,0,0,0.0271,0.0255,0.0274,0.0261,0.0238,0.0216,0.0218,0.0182,0.0165,0.0148,0.0094,0.0063,0.0012,-0.002,-0.0043,-0.0016,-0.0047,-0.0029,0.0038,0.0035,0.0044,0.0051,0.0056,0.0063,-0.002,-0.002,-0.002,0,0.0288,0.0305,0.0276,0.0289,0.0286,0.0238,0.0258,0.0238,0.0195,0.0193,0.016,0.0098,0.0041,0.0034,0.0036,0.0003,0.0,0.001,0.0047,0.0054,0.006,0.0062,0.0069,-0.0015,-0.0016,-0.0016,-0.0017,0,0.0338,0.0349,0.0361,0.0364,0.036,0.0368,0.0342,0.0337,0.031,0.0288,0.0273,0.02,0.0171,0.0141,0.0092,0.0109,0.0093,0.0055,0.003,0.0076,0.0075,0.0081,-0.0009,-0.001,-0.0012,-0.0013,0,0,0.038,0.0395,0.0396,0.0421,0.04,0.0414,0.042,0.0421,0.0453,0.0396,0.0433,0.0345,0.0313,0.0285,0.0223,0.0206,0.0231,0.0157,0.0154,0.0173,0.0239,0.021,0.0212,0.0204,0.0206,0.0207,0.0225,0,0.0425,0.0481,0.0464,0.0519,0.0551,0.0515,0.0538,0.0534,0.0521,0.0548,0.0475,0.0484,0.0368,0.0373,0.0333,0.0268,0.0249,0.0231,0.0182,0.0181,0.0158,0.0218,0.0205,0.0219,0.023,0.0231,0.0231,0,0.0475,0.0511,0.0579,0.0623,0.0634,0.0664,0.0709,0.0722,0.0729,0.0722,0.0703,0.0659,0.0628,0.053,0.0441,0.0439,0.0349,0.0283,0.0281,0.0227,0.0161,0.017,0.0228,-0.001,0.0239,0.0239,0.0238,0,0.0542,0.0588,0.0655,0.0666,0.071,0.0746,0.0769,0.0786,0.0842,0.0857,0.0916,0.0836,0.0858,0.0721,0.0568,0.0519,0.0482,0.0396,0.0281,0.0278,0.0243,0.0235,0.0075,0.0335,0.0335,0.0335,0.0335,0,0.06,0.0655,0.0705,0.0746,0.0859,0.0845,0.096,0.0968,0.1025,0.114,0.1032,0.1121,0.0911,0.0857,0.0661,0.0512,0.0555,0.0317,0.0288,0.0275,0.027,0.004,-0.0085,0.0336,0.0336,0.0335,0.0335,0,0.0687,0.0694,0.0798,0.0868,0.0902,0.0997,0.111,0.12,0.1223,0.1378,0.1406,0.1377,0.1305,0.108,0.0895,0.0677,0.0378,0.043,0.0433,0.0403,0.0037,-0.0081,-0.022,-0.0318,0.0305,0.0305,0.0304,0,0.0743,0.0805,0.0923,0.1005,0.1053,0.1178,0.1275,0.1312,0.1422,0.1555,0.1658,0.1639,0.166,0.1365,0.0984,0.0657,0.0411,0.0401,0.0277,0.0038,-0.0115,-0.0191,-0.0269,0.0272,0.0272,0.0271,0.0271,0,0.0886,0.0926,0.1021,0.1174,0.1294,0.1432,0.1569,0.1682,0.1761,0.1894,0.2058,0.209,0.1824,0.1507,0.1038,0.0771,0.0234,0.0378,0.0133,-0.0143,-0.0235,-0.0348,0.0239,0.0266,0.0267,0.0267,0.0267,0.0267,0.1014,0.1112,0.1218,0.1362,0.1498,0.1656,0.1779,0.1934,0.2121,0.2317,0.2346,0.2431,0.1932,0.1299,0.0934,0.0193,0.0212,-0.0062,-0.0177,-0.0225,-0.0352,0.023,0.0214,0.0214,0.0214,0.0214,0.0214,0,0.1155,0.1241,0.1391,0.1547,0.1694,0.1733,0.1953,0.208,0.2307,0.2514,0.2648,0.2443,0.183,0.1174,0.0205,-0.0279,-0.0458,-0.056,-0.0695,-0.0744,-0.0225,-0.0265,-0.0387,-0.0387,-0.0387,-0.0386,-0.0386,-0.0386,0.1238,0.138,0.143,0.1664,0.178,0.1974,0.2096,0.2302,0.2476,0.2698,0.2754,0.2766,0.2196,0.0552,-0.0589,-0.085,-0.116,-0.1213,-0.1367,-0.1065,-0.1029,-0.0994,-0.1063,-0.1351,-0.1352,-0.1836,-0.1841,-0.1845]}],[{"header":{"parameterUnit":"m.s-1","parameterCategory":2,"la1":30.2991,"la2":30.254,"lo1":-89.0895,"lo2":-89.0444,"dy":0.0017,"dx":0.0017,"nx":28,"ny":28,"refTime":"2023-08-28T03:00:00:Z","depth":"2","parameterNumber":2,"parameterNumberName":"U-component_of_CURRENTS"},"data":[0,0,0,0,0,0,0,0,0,0,0,0,0,0,0,0,0,0,0,0,0,0,0,0,0,0,0,0,0,0,0,0,0,0,0,0,0,0,0,0,0,0,0,0,0,0,0,0,0,0,0,0,0,0,0,0,0,0,0.2608,0.2609,0,0.2656,0.2656,0.2656,0.2654,0.2654,0.2653,0.2653,0.2697,0.2698,0.27,0,0,0,0,0,0,0,0,0,0,0,0,0,0.2538,0.2539,0.2608,0.2609,0.261,0.2655,0.2656,0.2656,0.2654,0.2654,0.2653,0.2653,0.2696,0.2698,0.27,0,0,0,0,0,0,0,0,0,0,0,0,0,0.2571,0.2539,0.2608,0.2618,0.262,0.2655,0.2656,0.2656,0.2654,0.2654,0.2653,0.2653,0.2696,0.2698,0.27,0.272,0,0,0.2706,0.2707,0,0,0,0,0,0,0,0,0.2569,0.2573,0.2616,0.2618,0.262,0.2653,0.2647,0.2679,0.2654,0.2636,0.2653,0.2653,0.2685,0.2688,0.2691,0.2722,0.2724,0.2706,0.2708,0.2709,0.2709,0,0,0,0,0,0,0,0.2567,0.2571,0.2622,0.2617,0.2619,0.2628,0.2632,0.2653,0.2658,0.2638,0.2639,0.2652,0.2685,0.2689,0.2692,0.2725,0.2706,0.2708,0.271,0.271,0.2811,0.2812,0,0,0,0,0,0,0.257,0.2569,0.2621,0.2624,0.2598,0.263,0.2634,0.2638,0.2658,0.2662,0.2652,0.2651,0.2686,0.269,0.2694,0.2771,0.2709,0.2711,0.2712,0.281,0.2811,0.2813,0,0,0,0,0,0,0.2568,0.2573,0.2619,0.2602,0.2609,0.2632,0.2637,0.264,0.2654,0.267,0.2673,0.2665,0.2686,0.2691,0.2724,0.2771,0.2712,0.2713,0.2808,0.281,0.2812,0.2893,0,0,0,0,0,0,0.2565,0.2572,0.258,0.2602,0.261,0.2648,0.2638,0.2641,0.2664,0.2664,0.2682,0.2685,0.2686,0.2721,0.2726,0.2773,0.2715,0.2806,0.2809,0.2811,0.2888,0.2897,0.2905,0,0,0,0,0,0.2562,0.2576,0.258,0.2587,0.2619,0.2649,0.2654,0.2666,0.2665,0.2676,0.269,0.2685,0.2742,0.2724,0.273,0.2778,0.2805,0.2808,0.2811,0.2885,0.2896,0.2905,0,0,0,0,0,0,0.2542,0.2578,0.2583,0.2604,0.2629,0.2651,0.267,0.2675,0.2694,0.2697,0.2702,0.2707,0.2763,0.2751,0.2731,0.2813,0.2774,0.2778,0.2827,0.2838,0.2846,0.2863,0.2717,0,0,0,0,0,0.2545,0.2568,0.2596,0.2615,0.2631,0.2652,0.2668,0.2677,0.2697,0.2705,0.2722,0.2742,0.278,0.279,0.2819,0.2854,0.2878,0.2888,0.2897,0.2904,0.2921,0.3007,0.3026,0.2823,0.2823,0.2823,0,0,0.2545,0.2567,0.2581,0.2614,0.2635,0.2661,0.2659,0.2691,0.2719,0.2708,0.2756,0.2782,0.2799,0.2851,0.2873,0.2844,0.2971,0.2908,0.2914,0.2927,0.3013,0.3033,0.305,0.2826,0.2825,0.2825,0,0,0.2556,0.2576,0.26,0.2625,0.2665,0.2678,0.269,0.2724,0.2748,0.2792,0.2806,0.2855,0.2891,0.2922,0.294,0.3008,0.3024,0.3017,0.3064,0.3148,0.3166,0.3183,0.3228,0.3247,0.3007,0.3008,0.3008,0,0.2557,0.2583,0.2611,0.2641,0.2673,0.2687,0.2721,0.2746,0.2787,0.2837,0.2815,0.2924,0.293,0.3017,0.3037,0.3031,0.3071,0.3026,0.3162,0.3179,0.3194,0.3237,0.3257,0.3012,0.3011,0.3011,0.3011,0,0.2581,0.2609,0.2628,0.267,0.2708,0.2738,0.2783,0.2822,0.2853,0.2898,0.3002,0.3017,0.3087,0.3094,0.3084,0.3201,0.3191,0.3177,0.3141,0.322,0.3258,0.3279,0.3018,0.3017,0.3015,0.3014,0,0,0.2563,0.2632,0.2638,0.2681,0.273,0.2771,0.2827,0.2908,0.2976,0.3022,0.3128,0.3181,0.3217,0.3238,0.3244,0.3294,0.342,0.3281,0.3284,0.3333,0.3599,0.3502,0.3513,0.3444,0.3448,0.3451,0.3579,0,0.2573,0.2631,0.2669,0.2741,0.278,0.2834,0.2895,0.2978,0.3043,0.3146,0.3207,0.3306,0.3264,0.3314,0.3365,0.3418,0.3479,0.3386,0.3508,0.3511,0.3423,0.3536,0.3245,0.3328,0.3598,0.3602,0.3604,0,0.2576,0.2623,0.2687,0.2803,0.2831,0.288,0.3011,0.3068,0.3205,0.327,0.3374,0.3435,0.3538,0.3484,0.3618,0.3567,0.3601,0.3618,0.3623,0.3522,0.3453,0.3294,0.3354,0.3637,0.3635,0.3632,0.363,0,0.2556,0.2644,0.2702,0.2735,0.2852,0.2921,0.299,0.3117,0.3201,0.3364,0.345,0.3578,0.3655,0.3725,0.3763,0.3719,0.3897,0.3839,0.3782,0.3774,0.3543,0.3507,0.3958,0.3958,0.3958,0.3957,0.3957,0,0.2549,0.2611,0.2703,0.2747,0.2845,0.2936,0.3056,0.3145,0.329,0.341,0.352,0.3626,0.3727,0.3832,0.3842,0.3879,0.3972,0.3825,0.3821,0.3558,0.3524,0.3797,0.3777,0.3962,0.3961,0.396,0.3959,0,0.2539,0.2578,0.268,0.281,0.2837,0.2929,0.3078,0.3169,0.3302,0.3457,0.3525,0.371,0.3836,0.391,0.403,0.3974,0.4019,0.401,0.3677,0.3631,0.3813,0.3795,0.3959,0.3957,0.3956,0.3954,0.3953,0,0.2545,0.2581,0.2713,0.2757,0.2824,0.2935,0.2998,0.315,0.3238,0.3492,0.3563,0.3766,0.3844,0.3971,0.3947,0.3964,0.4035,0.3697,0.3552,0.3844,0.3824,0.3808,0.3793,0.3274,0.3267,0.3262,0.3257,0,0.2572,0.2619,0.2703,0.2791,0.2869,0.2949,0.3053,0.3093,0.3275,0.3375,0.3529,0.3625,0.3771,0.3657,0.3702,0.3666,0.3662,0.3586,0.403,0.331,0.3206,0.3183,0.3189,0.3209,0.3214,0.3217,0.322,0.3222,0.2602,0.2667,0.2757,0.2802,0.2925,0.2963,0.2936,0.3027,0.31,0.3158,0.3341,0.3343,0.3412,0.3304,0.3238,0.3205,0.3429,0.3265,0.3279,0.3299,0.3189,0.3087,0.3046,0.3049,0.3052,0.3055,0.3058,0,0.2578,0.2642,0.2735,0.2811,0.2864,0.2958,0.2965,0.2857,0.2816,0.2919,0.2944,0.2732,0.2689,0.2787,0.2659,0.2664,0.2608,0.2565,0.2463,0.2514,0.2559,0.2407,0.2059,0.2056,0.2052,0.2049,0,0,0.2587,0.2608,0.2607,0.2654,0.2742,0.2748,0.2688,0.2536,0.2507,0.2376,0.2345,0.2495,0.2673,0.2298,0.2278,0.2149,0.23,0.2069,0.2878,0.2807,0.2847,0.2982,0.281,0,0,0,0,0]},{"header":{"parameterUnit":"m.s-1","parameterCategory":2,"la1":30.2991,"la2":30.254,"lo1":-89.0895,"lo2":-89.0444,"dy":0.0017,"dx":0.0017,"nx":28,"ny":28,"refTime":"2023-08-28T03:00:00:Z","depth":"2","parameterNumber":3,"parameterNumberName":"V-component_of_CURRENTS"},"data":[0,0,0,0,0,0,0,0,0,0,0,0,0,0,0,0,0,0,0,0,0,0,0,0,0,0,0,0,0,0,0,0,0,0,0,0,0,0,0,0,0,0,0,0,0,0,0,0,0,0,0,0,0,0,0,0,0,0,-0.0046,-0.0047,0,-0.0119,-0.012,-0.0121,-0.0173,-0.0173,-0.0174,-0.0174,-0.027,-0.0272,-0.0274,0,0,0,0,0,0,0,0,0,0,0,0,0,-0.0012,-0.0012,-0.0046,-0.0047,-0.0048,-0.0119,-0.012,-0.0121,-0.0173,-0.0173,-0.0174,-0.0174,-0.0269,-0.0272,-0.0274,0,0,0,0,0,0,0,0,0,0,0,0,0,-0.0051,-0.0012,-0.0046,-0.0081,-0.0085,-0.0119,-0.012,-0.0122,-0.0173,-0.0173,-0.0174,-0.0174,-0.0268,-0.0271,-0.0275,-0.0286,0,0,-0.0285,-0.0287,0,0,0,0,0,0,0,0,-0.0049,-0.0052,-0.0075,-0.0079,-0.0083,-0.0136,-0.0143,-0.0178,-0.0173,-0.0141,-0.0174,-0.0174,-0.0226,-0.0233,-0.0247,-0.0291,-0.0295,-0.0285,-0.0288,-0.0289,-0.029,0,0,0,0,0,0,0,-0.0046,-0.005,-0.0076,-0.0076,-0.0081,-0.0114,-0.012,-0.015,-0.0181,-0.0144,-0.0147,-0.0153,-0.0229,-0.0244,-0.025,-0.0297,-0.0285,-0.0288,-0.029,-0.0292,-0.0349,-0.0348,0,0,0,0,0,0,-0.0031,-0.0047,-0.0074,-0.0078,-0.0065,-0.0114,-0.012,-0.012,-0.0181,-0.019,-0.0153,-0.0155,-0.0238,-0.0246,-0.0253,-0.0257,-0.0289,-0.0292,-0.0294,-0.0349,-0.0349,-0.0348,0,0,0,0,0,0,-0.003,-0.0032,-0.0071,-0.0064,-0.0071,-0.0114,-0.0113,-0.0121,-0.0135,-0.0187,-0.0197,-0.0158,-0.0238,-0.0249,-0.0277,-0.0262,-0.0294,-0.0297,-0.035,-0.0349,-0.0348,-0.0273,0,0,0,0,0,0,-0.0028,-0.0031,-0.0028,-0.0062,-0.0071,-0.0082,-0.0113,-0.0122,-0.0138,-0.0142,-0.0195,-0.0205,-0.024,-0.0272,-0.028,-0.0267,-0.0299,-0.0351,-0.035,-0.0349,-0.0276,-0.027,-0.0264,0,0,0,0,0,-0.0027,-0.0015,-0.0027,-0.0031,-0.0064,-0.0081,-0.0088,-0.0122,-0.0137,-0.0137,-0.0176,-0.0203,-0.0272,-0.0274,-0.0285,-0.0272,-0.0351,-0.035,-0.0349,-0.0279,-0.0271,-0.0265,0,0,0,0,0,0,-0.0001,-0.002,-0.0034,-0.003,-0.005,-0.0089,-0.0093,-0.0115,-0.0146,-0.0149,-0.0201,-0.0213,-0.0232,-0.0262,-0.0264,-0.0285,-0.0314,-0.0315,-0.0257,-0.025,-0.0245,-0.0216,-0.0302,0,0,0,0,0,0.0009,0.0013,-0.0014,-0.0012,-0.0017,-0.0054,-0.0066,-0.0086,-0.0117,-0.0131,-0.0167,-0.0204,-0.0235,-0.025,-0.0284,-0.0295,-0.0322,-0.0293,-0.0287,-0.0281,-0.0265,-0.0291,-0.0286,-0.0344,-0.0344,-0.0344,0,0,0.0019,0.0009,0.001,-0.0006,-0.0024,-0.0023,-0.0062,-0.0071,-0.007,-0.0136,-0.0146,-0.0187,-0.0235,-0.025,-0.026,-0.0272,-0.0281,-0.028,-0.0275,-0.0261,-0.0289,-0.0284,-0.0279,-0.0343,-0.0344,-0.0344,0,0,0.0049,0.0036,0.0052,0.0039,0.0021,0.0001,0.0003,-0.0028,-0.0041,-0.006,-0.0104,-0.0131,-0.0181,-0.0206,-0.0228,-0.0207,-0.0251,-0.022,-0.0164,-0.019,-0.0185,-0.0181,-0.0214,-0.0213,-0.0213,-0.0213,-0.0213,0,0.0062,0.0076,0.0052,0.0062,0.0061,0.0019,0.0037,0.0017,-0.0021,-0.002,-0.0052,-0.0111,-0.0157,-0.0166,-0.0163,-0.0192,-0.0217,-0.0186,-0.018,-0.0177,-0.0174,-0.0209,-0.0209,-0.0209,-0.021,-0.021,-0.0211,0,0.0102,0.011,0.0119,0.0122,0.0119,0.0125,0.0102,0.0099,0.0074,0.0053,0.0037,-0.0027,-0.0056,-0.008,-0.012,-0.0116,-0.0145,-0.0172,-0.0195,-0.0164,-0.0203,-0.0204,-0.0204,-0.0205,-0.0206,-0.0207,0,0,0.0137,0.0147,0.0149,0.0171,0.0152,0.0164,0.0169,0.0172,0.0195,0.0142,0.0165,0.0094,0.0063,0.0038,-0.0014,-0.0042,-0.0058,-0.0092,-0.0095,-0.0117,-0.012,-0.0162,-0.0169,-0.0085,-0.0085,-0.0085,-0.0157,0,0.0174,0.022,0.0208,0.0253,0.0279,0.0252,0.0271,0.0268,0.025,0.0261,0.0198,0.0195,0.0107,0.0104,0.0058,-0.0023,-0.0058,-0.0036,-0.0153,-0.0156,-0.0191,-0.017,-0.0136,-0.0199,-0.016,-0.016,-0.016,0,0.0215,0.0246,0.0301,0.0344,0.0354,0.0377,0.0416,0.0425,0.0419,0.0407,0.038,0.0333,0.0288,0.0212,0.0084,0.0102,0.0002,-0.0073,-0.0078,-0.014,-0.0201,-0.0224,-0.0204,-0.0164,-0.0163,-0.0163,-0.0163,0,0.027,0.0311,0.0367,0.0376,0.0413,0.0447,0.0469,0.0478,0.0517,0.0514,0.0541,0.0458,0.044,0.0306,0.0136,0.0117,-0.0008,-0.0055,-0.019,-0.0195,-0.0198,-0.0203,-0.0139,-0.0139,-0.0139,-0.0139,-0.0138,0,0.0314,0.036,0.0406,0.0438,0.0527,0.0527,0.0611,0.0618,0.0655,0.0723,0.0632,0.0658,0.0464,0.0364,0.0189,-0.0004,0.0028,-0.017,-0.021,-0.0173,-0.0175,-0.017,-0.0173,-0.0141,-0.0141,-0.014,-0.014,0,0.0361,0.0383,0.0461,0.0525,0.0556,0.0625,0.0715,0.0774,0.0795,0.0882,0.0897,0.082,0.0684,0.0474,0.026,0.008,-0.0105,-0.0183,-0.0132,-0.0165,-0.0291,-0.0289,-0.0336,-0.0338,-0.0339,-0.0341,-0.0342,0,0.0387,0.0431,0.0531,0.0586,0.0622,0.0718,0.0788,0.0843,0.0909,0.0983,0.1031,0.0947,0.0877,0.0533,0.022,-0.0084,-0.0117,-0.0256,-0.0293,-0.0274,-0.0308,-0.0303,-0.0299,-0.0273,-0.0273,-0.0274,-0.0274,0,0.0434,0.047,0.0532,0.0647,0.0739,0.0844,0.0946,0.1033,0.1111,0.1189,0.1242,0.1203,0.089,0.0581,0.017,-0.0036,-0.0208,-0.0276,-0.0251,-0.0231,-0.0221,-0.0253,-0.025,-0.0278,-0.0278,-0.0277,-0.0277,-0.0277,0.0465,0.0519,0.0592,0.0696,0.0809,0.0938,0.1028,0.1158,0.1293,0.1408,0.1361,0.1308,0.0976,0.0437,0.0098,-0.0247,-0.0246,-0.0371,-0.0366,-0.0362,-0.0345,-0.0338,-0.0414,-0.0414,-0.0415,-0.0415,-0.0415,0,0.0483,0.0535,0.0627,0.0737,0.0844,0.0921,0.1101,0.1202,0.1374,0.1483,0.1506,0.1191,0.0852,0.0494,-0.0022,-0.035,-0.0362,-0.0441,-0.0376,-0.037,-0.0366,-0.0346,-0.0417,-0.0418,-0.0419,-0.042,0,0,0.0499,0.0562,0.0596,0.0727,0.082,0.098,0.1101,0.1292,0.1413,0.1519,0.1507,0.1386,0.0962,0.0587,0.0161,-0.0116,-0.0169,-0.0177,-0.0142,-0.0009,-0.0,-0.0295,-0.0256,0,0,0,0,0]}],[{"header":{"parameterUnit":"m.s-1","parameterCategory":2,"la1":30.2991,"la2":30.254,"lo1":-89.0895,"lo2":-89.0444,"dy":0.0017,"dx":0.0017,"nx":28,"ny":28,"refTime":"2023-08-28T03:00:00:Z","depth":"4","parameterNumber":2,"parameterNumberName":"U-component_of_CURRENTS"},"data":[0,0,0,0,0,0,0,0,0,0,0,0,0,0,0,0,0,0,0,0,0,0,0,0,0,0,0,0,0,0,0,0,0,0,0,0,0,0,0,0,0,0,0,0,0,0,0,0,0,0,0,0,0,0,0,0,0,0,0.1491,0.1492,0,0.1565,0.1565,0.1566,0.1629,0.163,0.163,0.1631,0.1705,0.1706,0.1707,0,0,0,0,0,0,0,0,0,0,0,0,0,0.1417,0.1418,0.1491,0.1492,0.1493,0.1564,0.1565,0.1566,0.1629,0.163,0.1631,0.1631,0.1704,0.1706,0.1707,0,0,0,0,0,0,0,0,0,0,0,0,0,0.1465,0.1418,0.1491,0.1533,0.1538,0.1564,0.1565,0.1567,0.1629,0.163,0.1631,0.1632,0.1704,0.1705,0.1707,0.1696,0,0,0.1713,0.1714,0,0,0,0,0,0,0,0,0.1462,0.1467,0.1526,0.153,0.1535,0.1589,0.1566,0.161,0.1628,0.1593,0.1631,0.1632,0.1666,0.1671,0.1681,0.17,0.1703,0.1713,0.1714,0.1715,0.1716,0,0,0,0,0,0,0,0.1459,0.1465,0.1519,0.1527,0.1533,0.1553,0.1561,0.1575,0.1622,0.1596,0.1601,0.161,0.1668,0.1679,0.1683,0.1704,0.1713,0.1715,0.1716,0.1717,0.1828,0.183,0,0,0,0,0,0,0.1449,0.1461,0.1517,0.1522,0.1502,0.1553,0.1562,0.157,0.1622,0.1631,0.1609,0.1613,0.1675,0.1681,0.1686,0.1767,0.1715,0.1717,0.1718,0.1827,0.1829,0.1831,0,0,0,0,0,0,0.1447,0.1453,0.1514,0.1494,0.1503,0.1553,0.1562,0.1571,0.1618,0.1632,0.1641,0.165,0.1676,0.1683,0.1733,0.1767,0.1718,0.1719,0.1824,0.1827,0.183,0.187,0,0,0,0,0,0,0.1445,0.1452,0.1473,0.1493,0.1504,0.1552,0.1561,0.1572,0.1619,0.1626,0.1669,0.1675,0.1678,0.173,0.1735,0.1768,0.1721,0.1822,0.1826,0.1829,0.1866,0.1874,0.188,0,0,0,0,0,0.1442,0.1458,0.1473,0.1481,0.1525,0.1553,0.1562,0.16,0.1621,0.1645,0.1679,0.1676,0.1756,0.1733,0.1738,0.1773,0.182,0.1825,0.1829,0.1863,0.1872,0.188,0,0,0,0,0,0,0.1437,0.1467,0.1484,0.1509,0.1541,0.1565,0.1597,0.1618,0.1663,0.1683,0.1694,0.1702,0.1762,0.1762,0.1737,0.1818,0.179,0.1795,0.1814,0.1823,0.183,0.1848,0.1722,0,0,0,0,0,0.1443,0.1464,0.1495,0.1517,0.154,0.1575,0.1599,0.1625,0.1658,0.1682,0.1711,0.1745,0.1776,0.1796,0.1824,0.186,0.188,0.1889,0.1896,0.1902,0.1922,0.1985,0.1999,0.1845,0.1844,0.1844,0,0,0.1443,0.1466,0.1477,0.1519,0.155,0.158,0.1594,0.1641,0.1672,0.168,0.1745,0.1774,0.1794,0.1842,0.1868,0.185,0.1954,0.1907,0.1912,0.1929,0.1991,0.2006,0.2019,0.1847,0.1847,0.1846,0,0,0.1446,0.1482,0.1503,0.1531,0.1585,0.1608,0.1628,0.1677,0.1714,0.1767,0.1788,0.1843,0.1882,0.1909,0.1923,0.1985,0.1993,0.1996,0.204,0.2101,0.2114,0.2126,0.2158,0.2173,0.1994,0.1994,0.1994,0,0.1454,0.1477,0.1514,0.1543,0.1574,0.1622,0.1655,0.1692,0.175,0.1789,0.1798,0.19,0.1915,0.1978,0.2004,0.2002,0.2031,0.2001,0.211,0.2122,0.2134,0.2164,0.2179,0.1996,0.1996,0.1996,0.1996,0,0.1461,0.1496,0.1514,0.1565,0.1605,0.1642,0.1695,0.1749,0.1801,0.1838,0.1934,0.1969,0.2033,0.2044,0.2043,0.2134,0.2126,0.2113,0.2085,0.2152,0.2179,0.2194,0.2,0.1999,0.1998,0.1998,0,0,0.1436,0.1507,0.1514,0.1541,0.1624,0.1646,0.1722,0.1795,0.1858,0.1924,0.2005,0.207,0.2115,0.2137,0.2154,0.2204,0.23,0.22,0.2202,0.2226,0.2428,0.2264,0.2264,0.2311,0.2315,0.2317,0.2409,0,0.1437,0.1481,0.1525,0.1573,0.1607,0.1681,0.1743,0.182,0.1904,0.1994,0.2059,0.2147,0.214,0.2195,0.2245,0.23,0.2346,0.2276,0.2366,0.2369,0.221,0.2278,0.2328,0.242,0.2424,0.2426,0.2428,0,0.1425,0.1461,0.1515,0.1587,0.1611,0.1656,0.1781,0.1842,0.198,0.2057,0.2165,0.2225,0.233,0.231,0.2438,0.2399,0.2426,0.245,0.2454,0.2301,0.2233,0.2345,0.2456,0.2454,0.2452,0.245,0.2448,0,0.1372,0.1444,0.1488,0.1512,0.1612,0.1667,0.1731,0.1872,0.1954,0.2122,0.2216,0.2329,0.2416,0.248,0.2537,0.2511,0.2657,0.2618,0.2489,0.2477,0.2579,0.2565,0.2706,0.2706,0.2706,0.2706,0.2705,0,0.1338,0.1366,0.1471,0.1486,0.1566,0.1645,0.1763,0.1854,0.2008,0.2109,0.2254,0.2348,0.2472,0.2559,0.2582,0.2583,0.2698,0.2516,0.25,0.2591,0.2578,0.2589,0.2574,0.2709,0.2708,0.2707,0.2707,0,0.126,0.1332,0.1382,0.1492,0.1547,0.1602,0.1774,0.184,0.2018,0.2162,0.2225,0.24,0.2516,0.2604,0.271,0.2631,0.2654,0.262,0.2718,0.2703,0.242,0.2407,0.2487,0.2482,0.2478,0.2474,0.2471,0,0.1221,0.1246,0.1372,0.1416,0.1474,0.1589,0.1667,0.1842,0.1918,0.2168,0.2205,0.2389,0.2488,0.2508,0.2603,0.2638,0.2602,0.2584,0.2493,0.2427,0.2404,0.2396,0.2389,0.2465,0.2464,0.2463,0.2462,0,0.1144,0.1202,0.1235,0.1326,0.1412,0.1501,0.1618,0.1676,0.1869,0.2061,0.2153,0.2226,0.2343,0.2406,0.2455,0.2469,0.258,0.254,0.2547,0.2463,0.2401,0.238,0.2378,0.2447,0.245,0.2451,0.2452,0,0.1088,0.1086,0.1137,0.1212,0.1301,0.1342,0.1448,0.1535,0.1649,0.1921,0.1944,0.2144,0.231,0.232,0.2365,0.2372,0.2329,0.2232,0.2254,0.2271,0.2158,0.2045,0.1985,0,0,0,0,0,0.1015,0.0985,0.1017,0.1071,0.114,0.12,0.1363,0.1471,0.1696,0.1706,0.1822,0.1926,0.2016,0.2112,0.2077,0.2257,0.2323,0.2204,0.2217,0.2369,0.2385,0.227,0,0,0,0,0,0,0.0963,0.0961,0.0958,0.0926,0.0934,0.1001,0.1099,0.1258,0.1289,0.153,0.1594,0.178,0.1899,0.2006,0.2026,0.2056,0.2019,0.2334,0.2328,0.2359,0.2374,0.2387,0.2275,0,0,0,0,0]},{"header":{"parameterUnit":"m.s-1","parameterCategory":2,"la1":30.2991,"la2":30.254,"lo1":-89.0895,"lo2":-89.0444,"dy":0.0017,"dx":0.0017,"nx":28,"ny":28,"refTime":"2023-08-28T03:00:00:Z","depth":"4","parameterNumber":3,"parameterNumberName":"V-component_of_CURRENTS"},"data":[0,0,0,0,0,0,0,0,0,0,0,0,0,0,0,0,0,0,0,0,0,0,0,0,0,0,0,0,0,0,0,0,0,0,0,0,0,0,0,0,0,0,0,0,0,0,0,0,0,0,0,0,0,0,0,0,0,0,-0.0024,-0.0024,0,-0.0073,-0.0074,-0.0074,-0.0111,-0.0112,-0.0112,-0.0112,-0.0179,-0.0181,-0.0182,0,0,0,0,0,0,0,0,0,0,0,0,0,0.0,0.0,-0.0024,-0.0024,-0.0025,-0.0073,-0.0074,-0.0074,-0.0111,-0.0112,-0.0112,-0.0113,-0.0179,-0.018,-0.0182,0,0,0,0,0,0,0,0,0,0,0,0,0,-0.0026,0.0,-0.0024,-0.0049,-0.0052,-0.0073,-0.0074,-0.0075,-0.0111,-0.0112,-0.0112,-0.0113,-0.0178,-0.018,-0.0182,-0.0187,0,0,-0.0189,-0.019,0,0,0,0,0,0,0,0,-0.0024,-0.0027,-0.0045,-0.0047,-0.005,-0.0086,-0.009,-0.0113,-0.0111,-0.0089,-0.0112,-0.0113,-0.0149,-0.0154,-0.0162,-0.019,-0.0193,-0.0189,-0.0191,-0.0192,-0.0192,0,0,0,0,0,0,0,-0.0022,-0.0025,-0.0044,-0.0045,-0.0049,-0.0071,-0.0075,-0.0095,-0.0116,-0.0091,-0.0094,-0.0099,-0.0151,-0.016,-0.0164,-0.0194,-0.0189,-0.0191,-0.0193,-0.0194,-0.0236,-0.0236,0,0,0,0,0,0,-0.0013,-0.0023,-0.0042,-0.0045,-0.0038,-0.0071,-0.0075,-0.0075,-0.0116,-0.0122,-0.0098,-0.01,-0.0156,-0.0161,-0.0167,-0.0171,-0.0192,-0.0194,-0.0195,-0.0236,-0.0236,-0.0236,0,0,0,0,0,0,-0.0012,-0.0014,-0.004,-0.0035,-0.004,-0.0071,-0.007,-0.0075,-0.0086,-0.0121,-0.0128,-0.0103,-0.0156,-0.0163,-0.0185,-0.0174,-0.0195,-0.0197,-0.0237,-0.0236,-0.0236,-0.0181,0,0,0,0,0,0,-0.0011,-0.0013,-0.0011,-0.0034,-0.004,-0.0048,-0.0069,-0.0076,-0.0088,-0.0091,-0.0128,-0.0134,-0.0157,-0.0181,-0.0187,-0.0177,-0.0199,-0.0237,-0.0236,-0.0236,-0.0183,-0.0179,-0.0175,0,0,0,0,0,-0.001,-0.0003,-0.001,-0.0013,-0.0035,-0.0047,-0.0052,-0.0076,-0.0088,-0.0088,-0.0116,-0.0133,-0.0183,-0.0183,-0.019,-0.018,-0.0237,-0.0237,-0.0236,-0.0185,-0.018,-0.0175,0,0,0,0,0,0,0.0007,-0.0007,-0.0015,-0.0013,-0.0027,-0.0053,-0.0057,-0.0072,-0.0094,-0.0098,-0.0133,-0.0141,-0.0156,-0.0177,-0.0176,-0.0192,-0.0212,-0.0213,-0.0171,-0.0166,-0.0162,-0.0146,-0.02,0,0,0,0,0,0.0013,0.0016,-0.0002,-0.0001,-0.0005,-0.003,-0.0039,-0.0053,-0.0075,-0.0085,-0.011,-0.0137,-0.0158,-0.0169,-0.0192,-0.02,-0.0231,-0.0199,-0.0195,-0.0191,-0.0183,-0.0224,-0.0223,-0.0234,-0.0234,-0.0234,0,0,0.0019,0.0013,0.0014,0.0003,-0.001,-0.0007,-0.0036,-0.0044,-0.0042,-0.0088,-0.0095,-0.0126,-0.0159,-0.0169,-0.0177,-0.0185,-0.0206,-0.0191,-0.0187,-0.018,-0.0223,-0.0222,-0.0221,-0.0234,-0.0234,-0.0234,0,0,0.0039,0.003,0.0041,0.0034,0.0021,0.0008,0.0009,-0.0013,-0.0023,-0.0036,-0.0068,-0.009,-0.0123,-0.0141,-0.0156,-0.0144,-0.0186,-0.0153,-0.0116,-0.0156,-0.0155,-0.0155,-0.0199,-0.0203,-0.0148,-0.0148,-0.0148,0,0.0046,0.006,0.0041,0.005,0.0051,0.002,0.0035,0.0021,-0.0006,-0.0009,-0.0031,-0.0079,-0.0107,-0.0118,-0.0114,-0.0133,-0.0168,-0.013,-0.015,-0.0151,-0.0151,-0.0197,-0.0202,-0.0145,-0.0145,-0.0146,-0.0146,0,0.0074,0.0084,0.0091,0.0096,0.0094,0.01,0.0084,0.008,0.0062,0.0044,0.0024,-0.002,-0.0047,-0.0061,-0.0084,-0.0097,-0.0125,-0.0143,-0.016,-0.0147,-0.0196,-0.0202,-0.0141,-0.0142,-0.0143,-0.0144,0,0,0.0092,0.0109,0.0111,0.0129,0.0121,0.0127,0.0133,0.0133,0.014,0.0103,0.0102,0.0061,0.0031,0.0012,-0.0024,-0.0057,-0.0095,-0.0096,-0.01,-0.0135,-0.0191,-0.0189,-0.0197,-0.0121,-0.0121,-0.0122,-0.0226,0,0.0121,0.0158,0.0154,0.019,0.0211,0.0194,0.0205,0.0198,0.018,0.0169,0.012,0.0102,0.006,0.0046,0.0007,-0.0069,-0.0108,-0.0065,-0.0203,-0.0206,-0.0202,-0.0202,-0.0124,-0.0231,-0.0232,-0.0233,-0.0234,0,0.0149,0.0174,0.0217,0.0252,0.0259,0.0273,0.0292,0.0298,0.0273,0.0256,0.0224,0.0175,0.0128,0.0086,-0.0033,-0.0007,-0.009,-0.0154,-0.016,-0.0179,-0.0216,-0.0247,-0.0246,-0.0245,-0.0244,-0.0243,-0.0243,0,0.0177,0.0219,0.0261,0.027,0.0298,0.0318,0.0332,0.0325,0.0341,0.0312,0.0307,0.0233,0.0196,0.0089,-0.004,-0.0042,-0.0184,-0.0205,-0.0284,-0.0286,-0.0281,-0.028,-0.0292,-0.0292,-0.0292,-0.0292,-0.0291,0,0.0206,0.0241,0.0282,0.0302,0.0358,0.0362,0.0408,0.0407,0.0409,0.0427,0.0357,0.0341,0.0194,0.0095,-0.0028,-0.0172,-0.0177,-0.0276,-0.0309,-0.0257,-0.0252,-0.0286,-0.0284,-0.0296,-0.0295,-0.0294,-0.0293,0,0.0221,0.0248,0.0298,0.0346,0.0372,0.0407,0.0466,0.0494,0.049,0.051,0.0503,0.0414,0.0287,0.0133,-0.005,-0.0148,-0.029,-0.0342,-0.0275,-0.0303,-0.0372,-0.0366,-0.0439,-0.044,-0.0441,-0.0441,-0.0442,0,0.0229,0.0257,0.0328,0.0365,0.0389,0.0453,0.05,0.0531,0.0561,0.0553,0.0559,0.0451,0.0372,0.0126,-0.0049,-0.0281,-0.0314,-0.0392,-0.038,-0.036,-0.0386,-0.0379,-0.0372,-0.0442,-0.0443,-0.0443,-0.0443,0,0.0239,0.0262,0.0306,0.0388,0.045,0.0522,0.0588,0.0619,0.0652,0.0649,0.0614,0.0487,0.0339,0.0137,-0.0044,-0.0213,-0.0341,-0.04,-0.04,-0.0388,-0.0365,-0.0388,-0.0381,-0.0445,-0.0445,-0.0445,-0.0444,0,0.0244,0.0274,0.0338,0.0418,0.0493,0.057,0.0604,0.0651,0.0689,0.0684,0.0665,0.0513,0.0419,0.017,0.0002,-0.016,-0.0206,-0.0258,-0.0266,-0.0266,-0.0185,-0.0129,-0.016,0,0,0,0,0,0.0252,0.0304,0.0367,0.0462,0.0532,0.0585,0.0659,0.0685,0.072,0.0711,0.0697,0.0565,0.0323,0.0209,0.0049,-0.0033,-0.0251,-0.0228,-0.032,-0.0457,-0.0454,-0.0387,0,0,0,0,0,0,0.0264,0.0324,0.0374,0.0491,0.0554,0.0648,0.0694,0.0714,0.0709,0.0709,0.0585,0.0528,0.0288,0.0426,0.005,-0.0003,-0.0084,-0.0342,-0.0346,-0.0458,-0.0456,-0.0454,-0.0384,0,0,0,0,0]}]]